COSMOS 1275 DEB

Satellite information

Favourite Embed

Satellite Type and Status

DEBRISIN ORBIT

Key statistics

Satellite COSMOS 1275 DEB at a glance.

Uptime

16263

Days in orbit

Revolutions

≈ 14.1

Per day

Orbit

LEO

Low Earth Orbit

Inclination

82.9

Latest

Satellite identification and parameters

Extended collection of information and parameters for COSMOS 1275 DEB.

Object identification

Identified? True

Debris? True

Object name: COSMOS 1275 DEB

International designator: 1981-053HH

Object number (NORAD): 13813

Object ID (CCSDS): 13813

Country: COMMONWEALTH OF INDEPENDENT STATES (CIS)

Current information (Y/N): Y

RCS size: SMALL

Orbital parameters

Period: 101.776 minutes

Inclination: 82.9358 deg

SMA: 7220.897 km

Apoapsis: 871.048 km

Periapsis: 814.476 km

RAAN: 21.5126 deg

Eccentricy: 0.00391727

Argument of periapsis: 306.7535 deg

Mean anomaly: 82.2021 deg

Mean motion: 14.14868317 rev/day

Mean motion (dot): 0.00003453 rev/day2

B* drag term: 0.0017681445 1/REarth

Two-line elements (TLE)

Creation date: Dec. 12, 2025, 10:14 a.m.

Reference frame: TEME

Reference center: EARTH

Epoch: Dec. 12, 2025, 1:57 a.m. UTC

TLE line 0: 0 COSMOS 1275 DEB

TLE line 1: 1 13813U 81053HH 25346.08170377 .00003453 00000-0 17681-2 0 9996

TLE line 2: 2 13813 82.9358 21.5126 0039173 306.7535 82.2021 14.14868317187398

Live tracking on map

Real-time ground track for satellite COSMOS 1275 DEB.

In-orbit conjunctions

A list of the most updated potential collisions computed for object COSMOS 1275 DEB.

Target Orbit TCA Probability of collision Miss distance Type
SL-16 R/B LEO 2025-12-03 18:43:31 0.0001746058 409.0 (m) ROCKET BODY
FENGYUN 1C DEB SSO 2025-03-11 20:12:00 0.0001288623 112.0 (m) DEBRIS
CZ-6A DEB SSO 2025-03-06 04:02:02 0.0004230075 60.0 (m) DEBRIS
COSMOS 1365 LEO 2025-02-12 01:04:11 0.0001432387 882.0 (m) PAYLOAD

Associated space launch

Navigation satellite providing location information for the Tsiklon-B navigation system

COSMOS 1275 DEB was lifted into orbit during the mission ‘Kosmos-3M | Parus 27’, on board a Kosmos-3M space rocket.

The launch took place on June 4, 1981, 3:41 p.m. from 132/2.

For more information about the launch, click the button.

Launch to space Kosmos-3M | Parus 27
Kosmos-3M | Parus 27

Agency: N/A

Status: Launch Successful

Launch date: June 4, 1981, 3:41 p.m. UTC

Rocket: Kosmos-3M

Launch pad: 132/2

Location: Plesetsk Cosmodrome, Russian Federation

...

Latest news about this satellite

There are no fresh news available about this satellite. Check back as we update our databases every day.


Newsletter sign-up

Weekly statistics, charts and insights to help you stay on top of the space industry.